Wind_Speed
10 11 11 11 11 11 10 9 7 7 6 5 4 3 2 2 2 2 2 3 2 1 1 2 3 3 4 5 5 6 6 6 7 7 7 8 8 8 8 8 8 8 9
9 10 10 10 11 11 11 10 8 7 5 5 4 3 2 2 1 1 2 2 2 2 2 2 3 4 4 5 5 6 7 7 8 8 8 8 9 9 9 9 9 9 10
8 8 9 10 11 11 11 9 8 7 6 5 3 3 3 3 2 2 2 3 3 2 3 3 3 4 4 5 6 6 6 7 8 9 9 9 10 10 11 11 11 11 11
7 8 8 9 10 10 10 10 8 7 6 4 4 4 3 3 3 3 3 4 4 3 3 3 4 5 5 6 6 7 7 7 8 10 10 11 11 12 12 13 13 13 12
6 7 8 9 10 10 10 10 9 7 6 4 4 4 4 4 4 4 4 4 4 4 3 4 5 6 6 7 7 8 8 9 9 10 11 12 12 13 13 13 13 13 13
7 8 8 10 10 10 9 10 9 8 6 6 5 5 5 5 5 5 5 5 5 6 6 6 7 7 7 7 7 8 9 10 10 11 12 12 13 13 13 13 13 14 14
9 9 9 10 9 9 9 9 9 8 7 7 6 6 6 6 6 6 6 7 7 7 8 8 7 7 8 8 9 9 9 10 12 12 12 13 13 13 14 14 14 14 15
10 10 10 9 9 9 9 9 9 9 8 8 8 8 8 7 7 8 8 8 8 8 8 9 9 10 10 10 10 10 10 11 11 12 12 13 14 14 14 15 15 16 16
11 11 11 9 10 9 10 10 10 10 10 9 9 10 10 9 9 9 9 10 10 10 10 10 10 10 10 11 12 12 12 12 12 13 14 14 15 15 16 16 17 18 18
12 12 12 11 11 10 11 10 11 11 11 11 11 12 12 11 11 11 12 12 12 13 13 12 11 11 11 11 12 13 13 13 13 14 15 15 15 16 16 17 18 19 19
14 14 13 12 12 12 12 12 11 12 12 13 13 14 14 13 12 12 13 13 14 14 14 14 13 13 13 14 14 14 14 14 14 14 15 16 17 17 18 19 19 20 20
15 15 14 14 14 14 14 14 13 14 15 15 15 15 15 14 13 13 14 14 14 15 16 15 15 15 15 16 16 16 16 16 16 16 16 17 17 18 18 19 20 20 21
16 15 15 16 16 16 16 16 16 16 17 16 16 17 17 17 16 15 15 16 16 16 17 16 16 16 17 17 17 18 18 18 18 18 18 18 19 19 19 19 20 20 21
17 17 17 17 18 17 17 18 18 18 18 18 18 18 18 18 18 17 17 17 17 17 17 18 18 18 19 19 19 19 19 19 20 20 20 20 21 21 21 21 22 22 23
17 18 18 19 19 19 19 19 19 19 19 19 20 20 19 19 18 18 18 18 18 18 19 19 19 20 20 20 20 20 20 21 21 21 22 22 22 23 23 23 24 25 25
18 19 19 20 20 20 20 20 20 20 20 20 20 20 20 20 19 19 19 19 20 20 20 20 20 20 21 21 21 21 22 22 23 23 24 24 24 25 25 25 25 26 27
20 21 21 21 22 22 21 21 21 21 21 21 21 21 21 21 21 21 21 22 22 22 22 22 22 22 23 22 22 23 23 24 24 25 25 26 25 26 26 26 27 27 27
23 23 23 24 24 23 23 22 21 21 21 21 22 23 23 23 23 23 24 23 23 24 24 24 25 25 25 25 25 25 25 26 26 26 26 27 27 27 28 28 28 29 29
24 24 25 24 24 24 24 24 23 23 23 23 23 24 24 25 24 25 25 25 25 26 26 27 27 27 27 27 26 26 26 27 27 27 27 27 28 28 28 29 28 28 29
24 25 26 26 26 27 27 27 26 25 25 25 26 26 25 25 26 26 26 26 26 26 27 27 28 28 28 27 26 27 27 27 27 27 27 28 29 29 29 29 29 29 30
25 25 26 27 27 28 28 27 27 27 27 27 27 27 27 27 27 27 26 27 27 27 27 28 28 27 27 27 27 27 27 27 27 28 28 28 29 29 30 30 30 31 32
26 26 27 28 28 28 28 28 28 28 28 28 28 28 28 28 28 27 27 27 27 27 28 28 27 27 27 27 27 27 27 27 27 27 28 29 29 30 30 31 32 32 33
27 27 28 28 28 29 30 29 28 28 29 29 29 28 28 28 27 27 27 27 27 27 27 26 27 26 27 28 27 26 27 28 29 28 28 29 30 31 32 33 33 34 34
27 28 28 28 29 29 30 30 30 29 29 29 28 28 28 27 27 27 27 27 27 27 26 26 26 26 26 26 26 27 28 29 29 29 29 30 30 31 32 33 34 34 35
26 27 28 28 28 29 30 29 29 29 29 29 28 28 28 28 28 27 27 27 26 26 25 25 26 25 25 25 27 28 28 28 28 29 30 31 31 31 32 33 34 34 34
27 27 27 28 28 28 28 29 29 29 28 28 29 29 28 28 28 28 27 27 26 26 26 26 26 25 25 26 27 27 28 29 29 30 31 31 31 31 32 33 33 34 35
Wind_Direction
13 14 14 13 14 14 13 10 11 11 12 19 25 42 56 53 61 66 51 34 26 331 263 241 238 231 224 229 236 235 234 233 234 234 238 240 246 250 255 258 261 262 262
8 11 10 9 8 9 11 12 11 12 10 16 25 29 42 30 23 40 32 6 357 344 316 283 264 246 238 240 241 237 245 243 244 245 247 251 254 255 255 261 263 263 263
358 6 6 4 3 1 2 6 6 7 3 360 8 17 9 5 0 348 352 339 335 313 290 285 269 248 242 245 246 251 253 251 250 248 251 253 253 257 258 262 264 264 262
350 358 358 356 352 350 352 356 357 353 355 358 354 344 345 343 337 321 325 325 322 322 293 292 275 261 260 258 260 257 258 257 255 255 254 255 257 258 259 263 265 267 267
339 346 344 343 344 345 346 350 351 347 348 350 348 343 333 323 319 314 312 315 305 309 294 295 290 274 269 268 268 266 267 264 261 259 258 258 260 260 259 260 263 266 270
326 329 333 337 340 344 345 345 348 346 338 335 333 337 335 326 318 310 302 300 303 307 297 288 287 279 272 269 269 270 268 265 263 263 263 262 263 265 263 262 263 265 267
318 320 325 333 339 341 341 339 340 339 333 325 326 325 321 315 309 307 305 300 303 306 302 292 286 282 277 273 274 274 269 264 263 265 265 264 264 267 266 266 267 268 268
310 314 318 322 329 334 335 335 334 333 328 320 317 317 315 310 306 301 301 301 302 304 303 300 291 285 283 280 278 282 280 275 271 270 269 268 268 268 270 270 270 269 270
301 305 306 307 316 322 323 322 323 323 321 316 307 307 313 308 302 295 295 296 297 298 297 296 293 289 284 280 279 281 283 282 277 272 270 271 271 270 272 272 271 270 270
295 295 297 299 307 311 314 315 314 313 311 309 306 304 303 304 295 290 292 294 293 295 292 290 288 287 287 287 284 280 280 280 280 275 274 276 277 278 277 276 274 272 272
293 290 292 297 301 303 307 309 310 309 308 306 305 305 305 302 292 288 290 291 293 295 291 289 287 285 286 285 285 285 283 281 281 278 276 277 278 277 276 275 275 274 274
292 289 289 292 296 298 300 301 301 303 303 302 304 304 306 302 295 289 289 290 291 292 292 289 286 283 283 283 282 282 282 281 282 281 281 279 279 279 278 277 277 275 274
287 285 284 286 289 292 294 296 297 298 298 299 302 303 303 301 294 290 290 290 289 290 289 289 287 284 283 282 282 281 278 279 280 282 281 280 280 281 282 282 281 280 277
284 283 284 284 286 287 292 294 295 295 297 298 301 302 302 300 295 289 288 287 287 288 289 288 285 284 283 282 282 281 279 278 278 279 280 280 280 281 281 282 282 282 281
284 284 284 284 286 288 292 293 293 293 294 296 297 298 300 299 295 290 287 286 286 287 287 288 285 282 281 281 280 280 280 279 278 279 280 279 279 280 280 280 280 280 281
284 284 285 286 287 287 290 292 292 293 293 294 294 294 294 296 295 291 289 287 285 286 286 286 284 282 281 280 279 279 279 280 279 279 281 280 281 281 281 280 280 281 281
288 286 287 288 289 290 289 291 291 289 291 292 292 291 291 291 293 291 289 286 284 282 283 282 282 282 281 280 279 279 280 280 280 280 282 282 282 282 282 281 280 281 281
285 285 286 289 289 288 287 289 288 287 288 290 289 289 291 290 290 290 289 287 284 282 282 282 281 279 279 279 279 280 281 280 280 282 282 282 282 282 282 283 284 283 282
284 285 285 286 287 287 289 291 290 287 286 289 290 291 291 291 290 290 288 287 286 284 282 282 281 280 279 279 278 280 282 282 281 283 282 281 281 282 283 283 284 284 284
284 286 285 284 284 287 289 290 289 289 290 291 292 293 293 292 293 293 292 291 288 287 285 283 282 280 279 280 279 280 282 282 281 282 282 282 282 281 281 282 282 283 285
287 285 284 285 285 287 289 290 289 289 290 291 293 294 294 294 294 292 291 291 289 289 287 285 283 280 279 278 280 281 282 282 281 281 282 283 283 282 281 281 282 283 284
285 284 285 285 285 287 288 290 288 288 288 289 290 292 292 294 293 291 290 291 291 290 288 287 284 282 280 279 279 278 280 280 282 282 281 282 283 284 283 283 284 285 285
285 285 285 285 284 286 287 288 288 288 289 290 290 291 292 293 292 290 290 290 291 291 291 288 285 283 281 281 279 279 280 282 284 284 284 285 285 286 286 285 285 285 285
287 286 285 285 285 286 287 287 288 288 289 289 288 289 290 291 292 290 289 289 289 290 291 289 286 284 283 282 281 282 282 284 286 286 285 285 286 286 287 287 287 287 286
289 288 287 286 285 285 286 286 286 287 288 288 289 290 291 291 291 292 290 288 287 287 288 289 288 284 284 283 283 284 285 286 286 287 287 288 288 287 287 286 286 287 287
289 288 287 288 290 287 286 286 285 285 286 288 290 290 290 290 290 290 289 288 289 289 291 291 290 289 288 288 287 287 288 288 289 289 290 290 289 289 289 289 288 289 289
Height
5898 5896 5893 5891 5889 5887 5885 5883 5881 5880 5879 5878 5877 5876 5876 5876 5877 5876 5876 5876 5876 5876 5876 5875 5876 5876 5876 5876 5877 5877 5878 5879 5879 5880 5881 5882 5883 5883 5884 5884 5884 5884 5884
5898 5896 5894 5892 5890 5888 5885 5883 5882 5880 5879 5878 5878 5877 5877 5877 5877 5877 5877 5876 5876 5876 5876 5875 5875 5875 5876 5876 5876 5877 5877 5878 5879 5880 5880 5881 5882 5881 5882 5881 5881 5882 5881
5898 5896 5894 5892 5890 5888 5885 5883 5882 5880 5879 5879 5878 5878 5877 5877 5877 5877 5877 5877 5876 5876 5875 5875 5875 5874 5875 5875 5875 5876 5876 5877 5877 5878 5879 5879 5879 5879 5880 5879 5879 5879 5879
5897 5896 5894 5892 5890 5887 5885 5883 5881 5880 5879 5879 5878 5878 5878 5877 5877 5877 5876 5876 5876 5875 5875 5874 5874 5874 5874 5874 5874 5874 5874 5875 5875 5876 5876 5877 5877 5877 5877 5877 5876 5876 5876
5897 5895 5894 5892 5889 5887 5884 5882 5881 5880 5879 5879 5878 5878 5877 5877 5877 5876 5876 5875 5875 5874 5874 5874 5873 5873 5873 5873 5872 5873 5873 5873 5873 5873 5874 5874 5873 5873 5873 5873 5874 5874 5873
5896 5895 5893 5891 5889 5886 5884 5882 5881 5880 5879 5878 5878 5877 5877 5877 5876 5876 5875 5874 5874 5873 5873 5872 5872 5871 5871 5871 5870 5870 5870 5870 5870 5870 5870 5870 5870 5870 5870 5870 5870 5870 5870
5895 5893 5892 5890 5888 5886 5884 5882 5881 5880 5879 5878 5877 5877 5876 5876 5875 5875 5874 5873 5873 5872 5871 5870 5870 5870 5869 5869 5868 5868 5867 5867 5867 5867 5867 5867 5867 5867 5867 5867 5867 5867 5867
5893 5891 5890 5889 5887 5885 5884 5882 5881 5879 5878 5877 5877 5875 5875 5874 5874 5873 5873 5872 5871 5870 5869 5869 5868 5867 5867 5867 5866 5865 5865 5864 5864 5864 5864 5864 5864 5863 5863 5863 5863 5863 5863
5891 5889 5888 5887 5886 5884 5883 5881 5880 5878 5877 5876 5875 5874 5873 5872 5872 5871 5870 5870 5869 5868 5867 5866 5866 5865 5864 5864 5863 5863 5862 5862 5861 5861 5860 5860 5860 5859 5859 5859 5858 5859 5858
5888 5887 5885 5885 5884 5882 5881 5879 5878 5877 5876 5875 5874 5872 5871 5870 5869 5868 5868 5867 5866 5865 5865 5864 5863 5862 5861 5861 5860 5860 5859 5858 5857 5857 5856 5856 5855 5855 5854 5854 5853 5853 5853
5885 5884 5883 5882 5881 5880 5879 5877 5876 5875 5873 5872 5871 5870 5868 5867 5865 5864 5864 5864 5863 5862 5861 5860 5859 5858 5858 5857 5857 5856 5855 5854 5853 5853 5852 5851 5851 5850 5849 5849 5848 5848 5847
5882 5881 5880 5879 5878 5877 5876 5874 5873 5872 5871 5869 5868 5867 5865 5864 5862 5861 5861 5860 5859 5858 5857 5856 5855 5854 5854 5853 5853 5852 5851 5850 5850 5849 5848 5847 5846 5845 5845 5844 5843 5842 5841
5878 5877 5876 5875 5874 5873 5872 5871 5870 5868 5867 5866 5864 5863 5862 5860 5859 5858 5857 5856 5855 5854 5852 5851 5851 5850 5849 5849 5848 5847 5846 5846 5845 5844 5843 5842 5841 5840 5839 5838 5837 5836 5835
5874 5872 5872 5871 5870 5869 5868 5866 5865 5864 5863 5861 5860 5859 5857 5856 5855 5853 5852 5851 5850 5849 5848 5846 5845 5845 5844 5843 5842 5842 5841 5840 5839 5838 5837 5836 5836 5835 5834 5833 5832 5830 5829
5869 5868 5867 5866 5865 5864 5863 5862 5860 5859 5858 5857 5855 5854 5853 5851 5850 5848 5847 5846 5845 5844 5842 5841 5840 5839 5838 5838 5837 5836 5835 5834 5833 5832 5831 5830 5829 5828 5827 5826 5825 5824 5822
5864 5863 5862 5861 5860 5859 5858 5857 5855 5854 5853 5852 5850 5849 5847 5846 5844 5843 5842 5841 5839 5838 5836 5835 5834 5833 5832 5831 5831 5830 5828 5827 5826 5825 5824 5823 5822 5821 5820 5819 5818 5817 5815
5859 5858 5857 5856 5855 5854 5853 5851 5850 5848 5847 5846 5844 5843 5841 5840 5839 5837 5836 5834 5833 5832 5830 5829 5828 5827 5826 5824 5824 5823 5822 5820 5819 5818 5817 5816 5814 5813 5812 5811 5810 5808 5807
5853 5853 5852 5851 5850 5849 5847 5846 5844 5842 5842 5840 5838 5837 5835 5834 5832 5830 5829 5827 5825 5824 5823 5822 5821 5819 5818 5817 5816 5815 5814 5813 5812 5810 5809 5808 5807 5805 5804 5803 5801 5800 5799
5848 5847 5846 5845 5844 5843 5841 5840 5838 5837 5835 5834 5832 5830 5828 5826 5824 5823 5821 5819 5817 5816 5815 5814 5813 5812 5810 5809 5808 5807 5806 5805 5803 5802 5801 5800 5798 5797 5796 5794 5793 5792 5790
5842 5840 5839 5838 5837 5836 5834 5833 5832 5830 5829 5827 5825 5823 5821 5819 5817 5815 5813 5811 5810 5808 5807 5805 5804 5803 5802 5801 5799 5798 5797 5796 5795 5794 5793 5791 5790 5789 5787 5786 5784 5783 5781
5835 5834 5833 5831 5830 5829 5827 5826 5824 5823 5822 5819 5818 5816 5813 5811 5809 5807 5805 5803 5802 5800 5798 5797 5795 5794 5793 5792 5791 5790 5789 5788 5786 5785 5784 5783 5781 5779 5778 5776 5775 5773 5772
5828 5827 5825 5824 5823 5821 5820 5818 5817 5815 5813 5811 5810 5808 5806 5803 5801 5799 5797 5795 5794 5792 5790 5789 5787 5785 5784 5784 5783 5782 5781 5779 5778 5777 5775 5774 5772 5770 5768 5767 5765 5763 5762
5821 5820 5818 5817 5815 5814 5812 5810 5808 5806 5805 5803 5802 5800 5798 5795 5793 5791 5789 5788 5786 5784 5782 5780 5779 5778 5777 5776 5775 5773 5772 5771 5769 5768 5766 5765 5763 5761 5759 5757 5755 5753 5751
5814 5812 5811 5809 5808 5806 5804 5802 5800 5798 5796 5795 5794 5792 5790 5788 5786 5783 5781 5780 5778 5776 5774 5772 5771 5770 5769 5768 5767 5765 5764 5762 5760 5759 5757 5755 5753 5751 5749 5747 5745 5743 5741
5806 5805 5803 5801 5800 5798 5796 5794 5791 5789 5788 5786 5785 5783 5781 5780 5778 5776 5774 5772 5770 5768 5767 5765 5764 5763 5761 5760 5759 5757 5756 5754 5752 5750 5748 5746 5744 5742 5740 5738 5735 5733 5731
5799 5797 5795 5794 5792 5789 5787 5785 5783 5781 5779 5778 5777 5775 5773 5771 5769 5767 5765 5763 5762 5761 5759 5757 5756 5755 5754 5752 5750 5748 5747 5745 5743 5741 5738 5736 5734 5732 5730 5728 5725 5723 5721